Location: Prague
(50.0830°N, 14.4670°E)
Time: 02:47:24
(UTC+01:00)

Oscar 11 - Pass Details

Date: 30 November 2021
Orbit: 611 x 625 km, 97.6° (Epoch: 17 January)

Event Time Altitude Azimuth Distance (km) Brightness Sun altitude
Rises 04:46:40 0° 22° (NNE) 2,922 10.8 -26.6°
Reaches altitude 10° 04:49:07 10° 34° (NNE) 2,008 10.0 -26.2°
Maximum altitude 04:52:56 29° 94° (E) 1,161 9.1 -25.6°
Drops below altitude 10° 04:56:41 10° 155° (SSE) 1,987 10.0 -25.0°
Sets 04:59:06 0° 166° (SSE) 2,885 10.7 -24.6°
